Time,TemperatureF,DewpointF,PressureIn,WindDirection,WindDirectionDegrees,WindSpeedMPH,WindSpeedGustMPH,Humidity,HourlyPrecipIn,Conditions,Clouds,dailyrainin,SoftwareType,DateUTC
2013-10-10 00:02:00,63.5,50.2,29.95,SSE,159,0.0,0.0,60,0.00,,,0.00,meteohub,2013-10-10 05:02:00,
2013-10-10 00:07:00,63.5,50.5,29.95,South,173,0.0,0.0,61,0.00,,,0.00,meteohub,2013-10-10 05:07:00,
2013-10-10 00:12:00,63.3,50.5,29.95,SSW,211,0.0,0.0,61,0.00,,,0.00,meteohub,2013-10-10 05:12:00,
2013-10-10 00:17:00,63.3,50.9,29.95,South,170,0.0,3.0,62,0.00,,,0.00,meteohub,2013-10-10 05:17:00,
2013-10-10 00:22:00,63.3,50.7,29.95,South,178,0.0,3.0,62,0.00,,,0.00,meteohub,2013-10-10 05:22:00,
2013-10-10 00:27:00,63.1,51.1,29.95,SSW,195,0.0,0.0,63,0.00,,,0.00,meteohub,2013-10-10 05:27:00,
2013-10-10 00:32:00,63.0,51.1,29.95,SSW,204,0.0,0.0,63,0.00,,,0.00,meteohub,2013-10-10 05:32:00,
2013-10-10 00:37:00,63.0,51.3,29.95,SSE,161,0.0,0.0,64,0.00,,,0.00,meteohub,2013-10-10 05:37:00,
2013-10-10 00:42:00,62.8,51.1,29.95,South,170,0.0,0.0,64,0.00,,,0.00,meteohub,2013-10-10 05:42:00,
2013-10-10 00:47:00,62.6,51.1,29.95,SSW,205,0.0,0.0,64,0.00,,,0.00,meteohub,2013-10-10 05:47:00,
2013-10-10 00:52:00,62.4,51.4,29.95,South,174,0.0,0.0,65,0.00,,,0.00,meteohub,2013-10-10 05:52:00,
2013-10-10 00:57:00,62.4,51.4,29.95,South,189,0.0,0.0,65,0.00,,,0.00,meteohub,2013-10-10 05:57:00,
2013-10-10 01:02:00,62.2,51.6,29.95,SSE,166,0.0,0.0,66,0.00,,,0.00,meteohub,2013-10-10 06:02:00,
2013-10-10 01:07:00,62.1,51.4,29.95,SSE,167,0.0,0.0,66,0.00,,,0.00,meteohub,2013-10-10 06:07:00,
2013-10-10 01:12:00,61.9,51.4,29.95,SSE,166,0.0,0.0,66,0.00,,,0.00,meteohub,2013-10-10 06:12:00,
2013-10-10 01:17:00,61.9,51.6,29.95,SSE,157,0.0,0.0,67,0.00,,,0.00,meteohub,2013-10-10 06:17:00,
2013-10-10 01:22:00,61.7,51.6,29.95,SSE,166,0.0,0.0,67,0.00,,,0.00,meteohub,2013-10-10 06:22:00,
2013-10-10 01:27:00,61.7,51.6,29.95,South,183,0.0,0.0,67,0.00,,,0.00,meteohub,2013-10-10 06:27:00,
2013-10-10 01:32:00,61.7,51.4,29.95,South,178,0.0,0.0,67,0.00,,,0.00,meteohub,2013-10-10 06:32:00,
2013-10-10 01:37:00,61.7,52.0,29.95,SSE,155,0.0,0.0,68,0.00,,,0.00,meteohub,2013-10-10 06:37:00,
2013-10-10 01:42:00,61.7,52.0,29.95,SSW,194,0.0,0.0,68,0.00,,,0.00,meteohub,2013-10-10 06:42:00,
2013-10-10 01:47:00,61.5,52.0,29.95,South,183,0.0,0.0,68,0.00,,,0.00,meteohub,2013-10-10 06:47:00,
2013-10-10 01:52:00,61.3,52.2,29.95,South,187,0.0,0.0,69,0.00,,,0.00,meteohub,2013-10-10 06:52:00,
2013-10-10 01:57:00,61.3,52.0,29.95,SSE,157,0.0,0.0,69,0.00,,,0.00,meteohub,2013-10-10 06:57:00,
2013-10-10 02:02:00,61.2,52.0,29.95,SSE,163,0.0,0.0,69,0.00,,,0.00,meteohub,2013-10-10 07:02:00,
2013-10-10 02:07:00,61.0,52.3,29.95,South,175,0.0,0.0,70,0.00,,,0.00,meteohub,2013-10-10 07:07:00,
2013-10-10 02:12:00,61.0,52.2,29.95,SSE,161,0.0,0.0,70,0.00,,,0.00,meteohub,2013-10-10 07:12:00,
2013-10-10 02:17:00,60.8,52.0,29.95,SSE,160,0.0,0.0,70,0.00,,,0.00,meteohub,2013-10-10 07:17:00,
2013-10-10 02:22:00,60.8,52.3,29.95,SSE,152,0.0,0.0,71,0.00,,,0.00,meteohub,2013-10-10 07:22:00,
2013-10-10 02:27:00,60.8,52.3,29.95,SSE,153,0.0,0.0,71,0.00,,,0.00,meteohub,2013-10-10 07:27:00,
2013-10-10 02:32:00,60.6,52.3,29.95,South,170,0.0,0.0,71,0.00,,,0.00,meteohub,2013-10-10 07:32:00,
2013-10-10 02:37:00,60.6,52.3,29.95,SSE,156,0.0,0.0,71,0.00,,,0.00,meteohub,2013-10-10 07:37:00,
2013-10-10 02:42:00,60.6,52.3,29.95,SSE,165,0.0,0.0,71,0.00,,,0.00,meteohub,2013-10-10 07:42:00,
2013-10-10 02:47:00,60.8,52.5,29.95,SSE,163,0.0,0.0,72,0.00,,,0.00,meteohub,2013-10-10 07:47:00,
2013-10-10 02:52:00,60.8,52.5,29.95,South,169,0.0,0.0,72,0.00,,,0.00,meteohub,2013-10-10 07:52:00,
2013-10-10 02:57:00,60.6,52.5,29.95,SE,145,0.0,0.0,72,0.00,,,0.00,meteohub,2013-10-10 07:57:00,
2013-10-10 03:02:00,60.6,52.5,29.95,South,174,0.0,0.0,72,0.00,,,0.00,meteohub,2013-10-10 08:02:00,
2013-10-10 03:07:00,60.6,52.5,29.95,SSE,152,0.0,0.0,72,0.00,,,0.00,meteohub,2013-10-10 08:07:00,
2013-10-10 03:12:00,60.6,52.7,29.95,SSE,158,0.0,0.0,73,0.00,,,0.00,meteohub,2013-10-10 08:12:00,
2013-10-10 03:17:00,60.6,52.7,29.95,SSE,156,0.0,0.0,73,0.00,,,0.00,meteohub,2013-10-10 08:17:00,
2013-10-10 03:22:00,60.4,52.7,29.95,South,175,0.0,0.0,73,0.00,,,0.00,meteohub,2013-10-10 08:22:00,
2013-10-10 03:27:00,60.4,52.7,29.95,South,175,0.0,0.0,73,0.00,,,0.00,meteohub,2013-10-10 08:27:00,
2013-10-10 03:32:00,60.3,52.9,29.95,SSE,163,0.0,0.0,74,0.00,,,0.00,meteohub,2013-10-10 08:32:00,
2013-10-10 03:37:00,60.1,52.9,29.95,SSE,157,0.0,0.0,74,0.00,,,0.00,meteohub,2013-10-10 08:37:00,
2013-10-10 03:42:00,60.1,52.7,29.95,SSE,157,0.0,0.0,74,0.00,,,0.00,meteohub,2013-10-10 08:42:00,
2013-10-10 03:47:00,60.1,53.1,29.95,SSE,157,0.0,0.0,75,0.00,,,0.00,meteohub,2013-10-10 08:47:00,
2013-10-10 03:52:00,60.1,53.1,29.95,South,175,0.0,0.0,75,0.00,,,0.00,meteohub,2013-10-10 08:52:00,
2013-10-10 03:57:00,60.1,53.1,29.95,SSW,194,0.0,0.0,75,0.00,,,0.00,meteohub,2013-10-10 08:57:00,
2013-10-10 04:02:00,59.9,53.2,29.95,SSE,158,0.0,0.0,76,0.00,,,0.00,meteohub,2013-10-10 09:02:00,
2013-10-10 04:07:00,59.9,53.2,29.95,South,182,0.0,0.0,76,0.00,,,0.00,meteohub,2013-10-10 09:07:00,
2013-10-10 04:12:00,59.9,53.2,29.92,SSE,158,0.0,0.0,76,0.00,,,0.00,meteohub,2013-10-10 09:12:00,
2013-10-10 04:17:00,60.1,53.4,29.92,SSE,156,0.0,0.0,76,0.00,,,0.00,meteohub,2013-10-10 09:17:00,
2013-10-10 04:22:00,60.1,53.8,29.92,SSE,168,0.0,0.0,77,0.00,,,0.00,meteohub,2013-10-10 09:22:00,
2013-10-10 04:27:00,60.1,53.8,29.92,SSE,152,0.0,0.0,77,0.00,,,0.00,meteohub,2013-10-10 09:27:00,
2013-10-10 04:32:00,60.1,53.8,29.92,South,191,0.0,0.0,77,0.00,,,0.00,meteohub,2013-10-10 09:32:00,
2013-10-10 04:37:00,60.1,53.4,29.92,SSE,158,0.0,0.0,76,0.00,,,0.00,meteohub,2013-10-10 09:37:00,
2013-10-10 04:42:00,60.1,53.2,29.92,South,177,0.0,0.0,76,0.00,,,0.00,meteohub,2013-10-10 09:42:00,
2013-10-10 04:47:00,60.1,53.1,29.92,SE,133,0.0,0.0,76,0.00,,,0.00,meteohub,2013-10-10 09:47:00,
2013-10-10 04:52:00,59.9,53.4,29.92,SSE,166,3.0,0.0,77,0.00,,,0.00,meteohub,2013-10-10 09:52:00,
2013-10-10 04:57:00,59.7,53.4,29.92,SE,143,0.0,3.0,77,0.00,,,0.00,meteohub,2013-10-10 09:57:00,
2013-10-10 05:02:00,59.7,53.2,29.92,South,169,0.0,3.0,77,0.00,,,0.00,meteohub,2013-10-10 10:02:00,
2013-10-10 05:07:00,59.7,53.2,29.92,South,191,0.0,3.0,77,0.00,,,0.00,meteohub,2013-10-10 10:07:00,
2013-10-10 05:12:00,59.5,53.2,29.95,SSW,192,0.0,0.0,77,0.00,,,0.00,meteohub,2013-10-10 10:12:00,
2013-10-10 05:17:00,59.5,53.1,29.95,SSE,150,0.0,0.0,77,0.00,,,0.00,meteohub,2013-10-10 10:17:00,
2013-10-10 05:22:00,59.4,53.2,29.95,SSE,168,0.0,0.0,77,0.00,,,0.00,meteohub,2013-10-10 10:22:00,
2013-10-10 05:27:00,59.4,53.4,29.95,SE,144,0.0,0.0,78,0.00,,,0.00,meteohub,2013-10-10 10:27:00,
2013-10-10 05:32:00,59.4,53.4,29.95,SE,144,0.0,0.0,78,0.00,,,0.00,meteohub,2013-10-10 10:32:00,
2013-10-10 05:37:00,59.4,53.4,29.95,SSE,165,0.0,0.0,78,0.00,,,0.00,meteohub,2013-10-10 10:37:00,
2013-10-10 05:42:00,59.4,53.2,29.92,SSE,160,0.0,0.0,78,0.00,,,0.00,meteohub,2013-10-10 10:42:00,
2013-10-10 05:47:00,59.4,53.2,29.92,SSE,156,0.0,0.0,78,0.00,,,0.00,meteohub,2013-10-10 10:47:00,
2013-10-10 05:52:00,59.2,53.6,29.92,SSE,154,0.0,0.0,79,0.00,,,0.00,meteohub,2013-10-10 10:52:00,
2013-10-10 05:57:00,59.2,53.6,29.92,SSE,163,0.0,0.0,79,0.00,,,0.00,meteohub,2013-10-10 10:57:00,
2013-10-10 06:02:00,59.2,53.4,29.92,SE,146,0.0,0.0,79,0.00,,,0.00,meteohub,2013-10-10 11:02:00,
2013-10-10 06:07:00,59.0,53.4,29.92,South,175,0.0,0.0,79,0.00,,,0.00,meteohub,2013-10-10 11:07:00,
2013-10-10 06:12:00,59.0,53.2,29.92,South,175,0.0,0.0,79,0.00,,,0.00,meteohub,2013-10-10 11:12:00,
2013-10-10 06:17:00,58.8,53.1,29.92,South,185,0.0,0.0,79,0.00,,,0.00,meteohub,2013-10-10 11:17:00,
2013-10-10 06:22:00,58.6,53.1,29.92,SSE,152,0.0,0.0,79,0.00,,,0.00,meteohub,2013-10-10 11:22:00,
2013-10-10 06:27:00,58.5,53.1,29.92,SSE,147,0.0,0.0,79,0.00,,,0.00,meteohub,2013-10-10 11:27:00,
2013-10-10 06:32:00,58.3,52.9,29.92,South,190,0.0,0.0,79,0.00,,,0.00,meteohub,2013-10-10 11:32:00,
2013-10-10 06:38:00,58.3,52.7,29.92,SSE,156,0.0,0.0,79,0.00,,,0.00,meteohub,2013-10-10 11:38:00,
2013-10-10 06:43:00,58.1,52.9,29.92,South,177,0.0,0.0,80,0.00,,,0.00,meteohub,2013-10-10 11:43:00,
2013-10-10 06:48:00,57.9,52.9,29.92,SSE,149,0.0,0.0,80,0.00,,,0.00,meteohub,2013-10-10 11:48:00,
2013-10-10 06:53:00,57.9,52.7,29.92,SSE,159,0.0,0.0,80,0.00,,,0.00,meteohub,2013-10-10 11:53:00,
2013-10-10 06:58:00,57.7,52.7,29.92,South,183,0.0,0.0,80,0.00,,,0.00,meteohub,2013-10-10 11:58:00,
2013-10-10 07:03:00,57.7,53.1,29.92,South,169,0.0,0.0,81,0.00,,,0.00,meteohub,2013-10-10 12:03:00,
2013-10-10 07:08:00,57.6,52.9,29.92,South,180,0.0,0.0,81,0.00,,,0.00,meteohub,2013-10-10 12:08:00,
2013-10-10 07:13:00,57.6,52.9,29.92,SE,144,0.0,0.0,81,0.00,,,0.00,meteohub,2013-10-10 12:13:00,
2013-10-10 07:18:00,57.6,52.9,29.92,SSE,166,0.0,0.0,81,0.00,,,0.00,meteohub,2013-10-10 12:18:00,
2013-10-10 07:23:00,57.7,52.9,29.92,SSE,158,0.0,0.0,81,0.00,,,0.00,meteohub,2013-10-10 12:23:00,
2013-10-10 07:28:00,57.7,53.1,29.92,South,169,0.0,0.0,81,0.00,,,0.00,meteohub,2013-10-10 12:28:00,
2013-10-10 07:33:00,57.9,53.1,29.92,SSE,163,0.0,2.0,81,0.00,,,0.00,meteohub,2013-10-10 12:33:00,
2013-10-10 07:38:00,57.9,53.1,29.92,SSE,153,0.0,2.0,81,0.00,,,0.00,meteohub,2013-10-10 12:38:00,
2013-10-10 07:44:00,57.9,53.1,29.92,SSE,150,0.0,0.0,81,0.00,,,0.00,meteohub,2013-10-10 12:44:00,
2013-10-10 07:49:00,57.9,53.1,29.92,South,176,0.0,0.0,81,0.00,,,0.00,meteohub,2013-10-10 12:49:00,
2013-10-10 07:54:00,57.9,53.2,29.92,SSE,168,0.0,0.0,81,0.00,,,0.00,meteohub,2013-10-10 12:54:00,
2013-10-10 07:59:00,58.1,52.9,29.92,South,179,0.0,0.0,80,0.00,,,0.00,meteohub,2013-10-10 12:59:00,
2013-10-10 08:04:00,58.3,53.1,29.92,SSE,151,0.0,0.0,80,0.00,,,0.00,meteohub,2013-10-10 13:04:00,
2013-10-10 08:09:00,58.5,53.2,29.92,SE,143,0.0,0.0,80,0.00,,,0.00,meteohub,2013-10-10 13:09:00,
2013-10-10 08:14:00,58.6,53.6,29.92,SSE,167,0.0,0.0,80,0.00,,,0.00,meteohub,2013-10-10 13:14:00,
2013-10-10 08:19:00,58.8,53.1,29.92,SSE,166,0.0,0.0,78,0.00,,,0.00,meteohub,2013-10-10 13:19:00,
2013-10-10 08:24:00,59.2,53.4,29.92,SE,139,0.0,0.0,78,0.00,,,0.00,meteohub,2013-10-10 13:24:00,
2013-10-10 08:29:00,59.4,53.2,29.92,South,186,0.0,0.0,77,0.00,,,0.00,meteohub,2013-10-10 13:29:00,
2013-10-10 08:34:00,59.5,53.4,29.92,SSE,163,0.0,0.0,77,0.00,,,0.00,meteohub,2013-10-10 13:34:00,
2013-10-10 08:39:00,59.7,52.9,29.92,South,181,0.0,0.0,75,0.00,,,0.00,meteohub,2013-10-10 13:39:00,
2013-10-10 08:44:00,60.1,53.2,29.92,SSE,157,0.0,0.0,75,0.00,,,0.00,meteohub,2013-10-10 13:44:00,
2013-10-10 08:50:00,60.4,53.1,29.92,South,172,0.0,0.0,74,0.00,,,0.00,meteohub,2013-10-10 13:50:00,
2013-10-10 08:55:00,60.6,52.9,29.92,South,169,0.0,0.0,73,0.00,,,0.00,meteohub,2013-10-10 13:55:00,
2013-10-10 09:00:00,60.8,52.7,29.92,South,183,0.0,0.0,72,0.00,,,0.00,meteohub,2013-10-10 14:00:00,
2013-10-10 09:05:00,61.0,52.9,29.92,South,177,0.0,0.0,72,0.00,,,0.00,meteohub,2013-10-10 14:05:00,
2013-10-10 09:10:00,61.3,52.9,29.92,South,183,0.0,0.0,71,0.00,,,0.00,meteohub,2013-10-10 14:10:00,
2013-10-10 09:15:00,61.5,53.2,29.92,SSE,164,0.0,0.0,71,0.00,,,0.00,meteohub,2013-10-10 14:15:00,
2013-10-10 09:20:00,61.9,53.1,29.92,SSE,156,0.0,0.0,70,0.00,,,0.00,meteohub,2013-10-10 14:20:00,
2013-10-10 09:25:00,62.1,53.2,29.92,South,171,0.0,0.0,70,0.00,,,0.00,meteohub,2013-10-10 14:25:00,
2013-10-10 09:30:00,62.2,53.1,29.92,SSE,168,0.0,0.0,69,0.00,,,0.00,meteohub,2013-10-10 14:30:00,
2013-10-10 09:35:00,62.6,53.1,29.92,South,177,0.0,0.0,68,0.00,,,0.00,meteohub,2013-10-10 14:35:00,
2013-10-10 09:40:00,63.1,53.6,29.92,SSW,193,0.0,0.0,68,0.00,,,0.00,meteohub,2013-10-10 14:40:00,
2013-10-10 09:45:00,63.7,54.0,29.92,SSW,197,0.0,4.0,68,0.00,,,0.00,meteohub,2013-10-10 14:45:00,
2013-10-10 09:50:00,64.0,53.8,29.92,South,178,0.0,4.0,67,0.00,,,0.00,meteohub,2013-10-10 14:50:00,
2013-10-10 09:56:00,64.4,53.8,29.92,SSE,162,0.0,4.0,66,0.00,,,0.00,meteohub,2013-10-10 14:56:00,
2013-10-10 10:01:00,65.1,54.3,29.92,SSE,152,0.0,0.0,66,0.00,,,0.00,meteohub,2013-10-10 15:01:00,
2013-10-10 10:06:00,65.8,54.5,29.92,South,191,0.0,0.0,65,0.00,,,0.00,meteohub,2013-10-10 15:06:00,
2013-10-10 10:11:00,66.7,54.1,29.92,SSE,147,0.0,0.0,63,0.00,,,0.00,meteohub,2013-10-10 15:11:00,
2013-10-10 10:16:00,67.5,54.7,29.92,South,180,0.0,0.0,63,0.00,,,0.00,meteohub,2013-10-10 15:16:00,
2013-10-10 10:21:00,68.2,54.3,29.92,South,186,0.0,0.0,61,0.00,,,0.00,meteohub,2013-10-10 15:21:00,
2013-10-10 10:26:00,68.9,54.7,29.92,SSE,163,0.0,0.0,60,0.00,,,0.00,meteohub,2013-10-10 15:26:00,
2013-10-10 10:31:00,69.6,54.0,29.92,South,185,0.0,0.0,58,0.00,,,0.00,meteohub,2013-10-10 15:31:00,
2013-10-10 10:36:00,70.0,54.0,29.92,South,181,0.0,0.0,57,0.00,,,0.00,meteohub,2013-10-10 15:36:00,
2013-10-10 10:41:00,70.3,54.0,29.92,SSW,204,0.0,0.0,56,0.00,,,0.00,meteohub,2013-10-10 15:41:00,
2013-10-10 10:46:00,70.7,53.6,29.92,South,187,0.0,0.0,55,0.00,,,0.00,meteohub,2013-10-10 15:46:00,
2013-10-10 10:51:00,71.1,53.4,29.92,South,171,0.0,2.0,54,0.00,,,0.00,meteohub,2013-10-10 15:51:00,
2013-10-10 10:56:00,71.6,53.6,29.92,SSW,196,0.0,2.0,53,0.00,,,0.00,meteohub,2013-10-10 15:56:00,
2013-10-10 11:02:00,71.8,53.8,29.92,SSE,151,0.0,2.0,53,0.00,,,0.00,meteohub,2013-10-10 16:02:00,
2013-10-10 11:07:00,72.0,53.6,29.92,South,184,0.0,2.0,52,0.00,,,0.00,meteohub,2013-10-10 16:07:00,
2013-10-10 11:12:00,72.5,53.4,29.92,South,182,0.0,2.0,51,0.00,,,0.00,meteohub,2013-10-10 16:12:00,
2013-10-10 11:17:00,73.0,53.2,29.92,South,174,0.0,2.0,50,0.00,,,0.00,meteohub,2013-10-10 16:17:00,
2013-10-10 11:22:00,73.2,53.4,29.92,SSW,198,0.0,2.0,50,0.00,,,0.00,meteohub,2013-10-10 16:22:00,
2013-10-10 11:27:00,73.6,53.2,29.89,SSW,202,0.0,2.0,49,0.00,,,0.00,meteohub,2013-10-10 16:27:00,
2013-10-10 11:32:00,73.8,53.6,29.89,SSW,200,0.0,0.0,49,0.00,,,0.00,meteohub,2013-10-10 16:32:00,
2013-10-10 11:37:00,74.1,52.9,29.89,South,182,0.0,2.0,48,0.00,,,0.00,meteohub,2013-10-10 16:37:00,
2013-10-10 11:42:00,74.3,53.4,29.89,SW,227,0.0,2.0,48,0.00,,,0.00,meteohub,2013-10-10 16:42:00,
2013-10-10 11:47:00,74.8,53.1,29.89,South,180,0.0,2.0,47,0.00,,,0.00,meteohub,2013-10-10 16:47:00,
2013-10-10 11:52:00,75.0,53.4,29.89,South,176,0.0,2.0,47,0.00,,,0.00,meteohub,2013-10-10 16:52:00,
2013-10-10 11:57:00,75.2,54.1,29.89,South,183,0.0,2.0,47,0.00,,,0.00,meteohub,2013-10-10 16:57:00,
2013-10-10 12:02:00,75.4,54.0,29.89,SSE,166,0.0,2.0,47,0.00,,,0.00,meteohub,2013-10-10 17:02:00,
2013-10-10 12:07:00,75.6,53.6,29.89,SSW,213,0.0,0.0,46,0.00,,,0.00,meteohub,2013-10-10 17:07:00,
2013-10-10 12:12:00,76.1,54.0,29.89,SSE,165,0.0,3.0,46,0.00,,,0.00,meteohub,2013-10-10 17:12:00,
2013-10-10 12:17:00,76.3,54.1,29.89,South,184,0.0,3.0,46,0.00,,,0.00,meteohub,2013-10-10 17:17:00,
2013-10-10 12:22:00,76.6,53.8,29.89,SSW,199,0.0,3.0,45,0.00,,,0.00,meteohub,2013-10-10 17:22:00,
2013-10-10 12:27:00,76.5,53.8,29.89,South,174,0.0,2.0,45,0.00,,,0.00,meteohub,2013-10-10 17:27:00,
2013-10-10 12:32:00,76.6,53.2,29.89,West,261,7.0,0.0,44,0.00,,,0.00,meteohub,2013-10-10 17:32:00,
2013-10-10 12:37:00,76.8,53.6,29.89,South,172,0.0,7.0,44,0.00,,,0.00,meteohub,2013-10-10 17:37:00,
2013-10-10 12:42:00,77.0,52.9,29.89,SSW,199,0.0,7.0,43,0.00,,,0.00,meteohub,2013-10-10 17:42:00,
2013-10-10 12:47:00,77.2,53.8,29.89,SSE,164,0.0,7.0,44,0.00,,,0.00,meteohub,2013-10-10 17:47:00,
2013-10-10 12:52:00,77.4,53.6,29.89,South,177,0.0,2.0,43,0.00,,,0.00,meteohub,2013-10-10 17:52:00,
2013-10-10 12:57:00,77.5,53.4,29.86,SSE,167,0.0,2.0,43,0.00,,,0.00,meteohub,2013-10-10 17:57:00,
2013-10-10 13:02:00,77.7,54.0,29.86,South,180,0.0,2.0,43,0.00,,,0.00,meteohub,2013-10-10 18:02:00,
2013-10-10 13:07:00,78.1,54.3,29.86,South,187,0.0,0.0,43,0.00,,,0.00,meteohub,2013-10-10 18:07:00,
2013-10-10 13:12:00,78.4,54.0,29.86,SSW,199,2.0,0.0,42,0.00,,,0.00,meteohub,2013-10-10 18:12:00,
2013-10-10 13:17:00,78.8,53.8,29.86,South,170,0.0,2.0,42,0.00,,,0.00,meteohub,2013-10-10 18:17:00,
2013-10-10 13:22:00,78.8,54.5,29.86,SE,146,0.0,2.0,42,0.00,,,0.00,meteohub,2013-10-10 18:22:00,
2013-10-10 13:27:00,79.0,53.8,29.86,South,187,0.0,2.0,41,0.00,,,0.00,meteohub,2013-10-10 18:27:00,
2013-10-10 13:32:00,79.0,54.1,29.86,SE,144,0.0,0.0,41,0.00,,,0.00,meteohub,2013-10-10 18:32:00,
2013-10-10 13:37:00,79.0,53.8,29.86,SSW,197,0.0,9.0,41,0.00,,,0.00,meteohub,2013-10-10 18:37:00,
2013-10-10 13:42:00,79.2,54.0,29.83,SSW,198,0.0,9.0,41,0.00,,,0.00,meteohub,2013-10-10 18:42:00,
2013-10-10 13:47:00,79.2,54.3,29.83,South,179,0.0,9.0,41,0.00,,,0.00,meteohub,2013-10-10 18:47:00,
2013-10-10 13:52:00,79.2,54.1,29.83,SSW,192,0.0,0.0,41,0.00,,,0.00,meteohub,2013-10-10 18:52:00,
2013-10-10 13:57:00,79.2,54.0,29.83,SE,142,0.0,10.0,41,0.00,,,0.00,meteohub,2013-10-10 18:57:00,
2013-10-10 14:02:00,79.2,54.3,29.83,South,191,0.0,10.0,41,0.00,,,0.00,meteohub,2013-10-10 19:02:00,
2013-10-10 14:07:00,79.2,53.4,29.83,South,191,0.0,0.0,40,0.00,,,0.00,meteohub,2013-10-10 19:07:00,
2013-10-10 14:12:00,79.3,54.5,29.83,SSE,153,0.0,0.0,41,0.00,,,0.00,meteohub,2013-10-10 19:12:00,
2013-10-10 14:17:00,79.5,53.8,29.83,SSE,148,0.0,6.0,40,0.00,,,0.00,meteohub,2013-10-10 19:17:00,
2013-10-10 14:22:00,79.7,54.0,29.83,SSE,167,0.0,15.0,40,0.00,,,0.00,meteohub,2013-10-10 19:22:00,
2013-10-10 14:27:00,79.5,54.0,29.80,SE,143,0.0,15.0,40,0.00,,,0.00,meteohub,2013-10-10 19:27:00,
2013-10-10 14:32:00,79.3,53.8,29.80,South,183,0.0,15.0,40,0.00,,,0.00,meteohub,2013-10-10 19:32:00,
2013-10-10 14:37:00,79.2,53.8,29.80,South,185,0.0,7.0,40,0.00,,,0.00,meteohub,2013-10-10 19:37:00,
2013-10-10 14:42:00,79.2,53.8,29.80,SSE,163,0.0,11.0,40,0.00,,,0.00,meteohub,2013-10-10 19:42:00,
2013-10-10 14:47:00,79.3,53.8,29.80,South,172,0.0,11.0,40,0.00,,,0.00,meteohub,2013-10-10 19:47:00,
2013-10-10 14:52:00,79.3,54.0,29.80,SSE,147,0.0,0.0,40,0.00,,,0.00,meteohub,2013-10-10 19:52:00,
2013-10-10 14:57:00,79.9,54.7,29.80,SSW,198,0.0,0.0,40,0.00,,,0.00,meteohub,2013-10-10 19:57:00,
2013-10-10 15:02:00,80.1,54.5,29.80,South,191,0.0,0.0,40,0.00,,,0.00,meteohub,2013-10-10 20:02:00,
2013-10-10 15:07:00,80.1,54.5,29.80,SSE,150,0.0,2.0,40,0.00,,,0.00,meteohub,2013-10-10 20:07:00,
2013-10-10 15:12:00,79.9,54.1,29.80,SSE,156,0.0,2.0,40,0.00,,,0.00,meteohub,2013-10-10 20:12:00,
2013-10-10 15:17:00,79.7,54.3,29.80,SSW,193,0.0,2.0,40,0.00,,,0.00,meteohub,2013-10-10 20:17:00,
2013-10-10 15:22:00,79.7,53.6,29.80,South,170,11.0,11.0,39,0.00,,,0.00,meteohub,2013-10-10 20:22:00,
2013-10-10 15:27:00,79.7,54.3,29.80,SSE,165,0.0,13.0,40,0.00,,,0.00,meteohub,2013-10-10 20:27:00,
2013-10-10 15:31:00,79.7,54.5,29.80,SSE,147,0.0,13.0,40,0.00,,,0.00,meteohub,2013-10-10 20:31:00,
2013-10-10 15:36:00,79.9,54.5,29.80,South,191,0.0,13.0,40,0.00,,,0.00,meteohub,2013-10-10 20:36:00,
2013-10-10 15:41:00,79.7,53.6,29.80,South,181,0.0,0.0,39,0.00,,,0.00,meteohub,2013-10-10 20:41:00,
2013-10-10 15:46:00,79.7,54.5,29.80,SSE,165,0.0,0.0,40,0.00,,,0.00,meteohub,2013-10-10 20:46:00,
2013-10-10 15:51:00,79.9,54.5,29.80,SE,132,0.0,0.0,40,0.00,,,0.00,meteohub,2013-10-10 20:51:00,
2013-10-10 15:56:00,80.1,54.5,29.80,South,191,0.0,9.0,40,0.00,,,0.00,meteohub,2013-10-10 20:56:00,
2013-10-10 16:01:00,79.9,54.0,29.80,SSE,168,0.0,9.0,39,0.00,,,0.00,meteohub,2013-10-10 21:01:00,
2013-10-10 16:06:00,80.1,54.0,29.80,South,183,0.0,10.0,39,0.00,,,0.00,meteohub,2013-10-10 21:06:00,
2013-10-10 16:11:00,80.1,53.8,29.80,South,179,0.0,15.0,39,0.00,,,0.00,meteohub,2013-10-10 21:11:00,
2013-10-10 16:17:00,80.1,53.8,29.80,SSW,208,0.0,15.0,39,0.00,,,0.00,meteohub,2013-10-10 21:17:00,
2013-10-10 16:22:00,79.9,53.8,29.80,South,182,0.0,3.0,39,0.00,,,0.00,meteohub,2013-10-10 21:22:00,
2013-10-10 16:27:00,79.7,53.6,29.80,South,181,0.0,2.0,39,0.00,,,0.00,meteohub,2013-10-10 21:27:00,
2013-10-10 16:32:00,79.7,53.6,29.80,SSW,197,0.0,0.0,39,0.00,,,0.00,meteohub,2013-10-10 21:32:00,
2013-10-10 16:37:00,79.7,53.6,29.80,South,174,0.0,0.0,39,0.00,,,0.00,meteohub,2013-10-10 21:37:00,
2013-10-10 16:42:00,79.7,53.6,29.80,South,183,0.0,0.0,39,0.00,,,0.00,meteohub,2013-10-10 21:42:00,
2013-10-10 16:47:00,79.5,53.4,29.80,SSE,167,0.0,9.0,39,0.00,,,0.00,meteohub,2013-10-10 21:47:00,
2013-10-10 16:52:00,79.3,54.0,29.80,South,187,0.0,9.0,40,0.00,,,0.00,meteohub,2013-10-10 21:52:00,
2013-10-10 16:57:00,79.3,54.0,29.77,SSE,167,0.0,5.0,40,0.00,,,0.00,meteohub,2013-10-10 21:57:00,
2013-10-10 17:02:00,79.2,54.0,29.77,South,187,0.0,12.0,40,0.00,,,0.00,meteohub,2013-10-10 22:02:00,
2013-10-10 17:07:00,79.2,54.0,29.77,SSE,157,0.0,12.0,40,0.00,,,0.00,meteohub,2013-10-10 22:07:00,
2013-10-10 17:12:00,79.2,54.5,29.77,SSW,202,0.0,3.0,41,0.00,,,0.00,meteohub,2013-10-10 22:12:00,
2013-10-10 17:17:00,79.0,54.5,29.77,SSE,165,0.0,3.0,41,0.00,,,0.00,meteohub,2013-10-10 22:17:00,
2013-10-10 17:22:00,79.0,53.8,29.77,South,171,0.0,3.0,40,0.00,,,0.00,meteohub,2013-10-10 22:22:00,
2013-10-10 17:27:00,79.0,54.3,29.77,SE,136,0.0,0.0,41,0.00,,,0.00,meteohub,2013-10-10 22:27:00,
2013-10-10 17:32:00,78.8,54.3,29.77,SE,138,0.0,0.0,41,0.00,,,0.00,meteohub,2013-10-10 22:32:00,
2013-10-10 17:37:00,78.6,54.3,29.77,South,173,0.0,0.0,41,0.00,,,0.00,meteohub,2013-10-10 22:37:00,
2013-10-10 17:42:00,78.4,54.0,29.77,SSW,194,0.0,6.0,41,0.00,,,0.00,meteohub,2013-10-10 22:42:00,
2013-10-10 17:47:00,78.3,54.1,29.77,SSE,160,0.0,6.0,41,0.00,,,0.00,meteohub,2013-10-10 22:47:00,
2013-10-10 17:52:00,78.3,53.8,29.77,SSE,161,0.0,6.0,41,0.00,,,0.00,meteohub,2013-10-10 22:52:00,
2013-10-10 17:57:00,78.1,53.6,29.77,SSW,192,0.0,4.0,41,0.00,,,0.00,meteohub,2013-10-10 22:57:00,
2013-10-10 18:02:00,78.1,54.3,29.77,SSE,155,0.0,8.0,42,0.00,,,0.00,meteohub,2013-10-10 23:02:00,
2013-10-10 18:07:00,77.7,54.0,29.77,South,175,0.0,8.0,42,0.00,,,0.00,meteohub,2013-10-10 23:07:00,
2013-10-10 18:12:00,77.7,54.0,29.77,SSE,148,0.0,8.0,42,0.00,,,0.00,meteohub,2013-10-10 23:12:00,
2013-10-10 18:17:00,77.4,53.8,29.77,SSE,156,0.0,0.0,42,0.00,,,0.00,meteohub,2013-10-10 23:17:00,
2013-10-10 18:22:00,77.2,54.1,29.77,SSE,150,0.0,8.0,43,0.00,,,0.00,meteohub,2013-10-10 23:22:00,
2013-10-10 18:27:00,76.8,53.6,29.77,South,181,0.0,8.0,43,0.00,,,0.00,meteohub,2013-10-10 23:27:00,
2013-10-10 18:32:00,76.6,53.4,29.77,SSE,158,0.0,0.0,43,0.00,,,0.00,meteohub,2013-10-10 23:32:00,
2013-10-10 18:37:00,76.5,53.8,29.77,South,184,0.0,0.0,44,0.00,,,0.00,meteohub,2013-10-10 23:37:00,
2013-10-10 18:42:00,76.3,54.0,29.77,SSE,168,0.0,0.0,45,0.00,,,0.00,meteohub,2013-10-10 23:42:00,
2013-10-10 18:47:00,76.1,54.5,29.77,SSE,157,0.0,0.0,46,0.00,,,0.00,meteohub,2013-10-10 23:47:00,
2013-10-10 18:52:00,75.7,54.1,29.77,SSE,156,0.0,0.0,46,0.00,,,0.00,meteohub,2013-10-10 23:52:00,
2013-10-10 18:57:00,75.6,54.0,29.77,SSE,168,0.0,0.0,46,0.00,,,0.00,meteohub,2013-10-10 23:57:00,
2013-10-10 19:02:00,75.2,54.3,29.77,South,170,0.0,0.0,47,0.00,,,0.00,meteohub,2013-10-11 00:02:00,
2013-10-10 19:07:00,75.0,54.0,29.77,South,183,0.0,0.0,47,0.00,,,0.00,meteohub,2013-10-11 00:07:00,
2013-10-10 19:12:00,74.8,53.8,29.77,SSW,198,0.0,0.0,47,0.00,,,0.00,meteohub,2013-10-11 00:12:00,
2013-10-10 19:17:00,74.7,54.3,29.77,SSE,164,0.0,0.0,48,0.00,,,0.00,meteohub,2013-10-11 00:17:00,
2013-10-10 19:22:00,74.5,54.5,29.77,South,173,0.0,0.0,49,0.00,,,0.00,meteohub,2013-10-11 00:22:00,
2013-10-10 19:27:00,74.3,54.5,29.77,SSE,165,0.0,0.0,49,0.00,,,0.00,meteohub,2013-10-11 00:27:00,
2013-10-10 19:32:00,74.1,54.3,29.77,SSE,156,0.0,0.0,49,0.00,,,0.00,meteohub,2013-10-11 00:32:00,
2013-10-10 19:37:00,73.9,54.1,29.77,South,170,0.0,0.0,49,0.00,,,0.00,meteohub,2013-10-11 00:37:00,
2013-10-10 19:42:00,73.6,54.7,29.77,South,179,0.0,0.0,50,0.00,,,0.00,meteohub,2013-10-11 00:42:00,
2013-10-10 19:47:00,73.6,54.5,29.77,SSE,166,0.0,0.0,50,0.00,,,0.00,meteohub,2013-10-11 00:47:00,
2013-10-10 19:52:00,73.4,54.3,29.77,SSE,163,0.0,0.0,50,0.00,,,0.00,meteohub,2013-10-11 00:52:00,
2013-10-10 19:57:00,73.2,54.0,29.77,SSE,149,0.0,0.0,50,0.00,,,0.00,meteohub,2013-10-11 00:57:00,
2013-10-10 20:02:00,72.9,54.1,29.77,SSE,166,0.0,0.0,51,0.00,,,0.00,meteohub,2013-10-11 01:02:00,
2013-10-10 20:07:00,72.7,54.5,29.77,South,184,0.0,0.0,52,0.00,,,0.00,meteohub,2013-10-11 01:07:00,
2013-10-10 20:12:00,72.3,54.9,29.77,South,178,0.0,0.0,53,0.00,,,0.00,meteohub,2013-10-11 01:12:00,
2013-10-10 20:17:00,72.1,54.7,29.77,SSE,167,0.0,4.0,53,0.00,,,0.00,meteohub,2013-10-11 01:17:00,
2013-10-10 20:22:00,72.0,54.3,29.77,SSE,164,0.0,4.0,53,0.00,,,0.00,meteohub,2013-10-11 01:22:00,
2013-10-10 20:27:00,71.8,54.3,29.77,SSW,197,0.0,4.0,53,0.00,,,0.00,meteohub,2013-10-11 01:27:00,
2013-10-10 20:32:00,71.6,54.1,29.77,South,180,0.0,2.0,53,0.00,,,0.00,meteohub,2013-10-11 01:32:00,
2013-10-10 20:37:00,71.6,54.1,29.77,SE,127,0.0,2.0,53,0.00,,,0.00,meteohub,2013-10-11 01:37:00,
2013-10-10 20:42:00,71.4,54.0,29.77,SSE,162,0.0,0.0,53,0.00,,,0.00,meteohub,2013-10-11 01:42:00,
2013-10-10 20:47:00,71.2,54.3,29.77,South,189,0.0,0.0,54,0.00,,,0.00,meteohub,2013-10-11 01:47:00,
2013-10-10 20:52:00,71.1,54.1,29.77,SSE,160,0.0,4.0,54,0.00,,,0.00,meteohub,2013-10-11 01:52:00,
2013-10-10 20:57:00,70.7,54.5,29.77,SSE,155,0.0,4.0,55,0.00,,,0.00,meteohub,2013-10-11 01:57:00,
2013-10-10 21:02:00,70.7,54.3,29.77,SE,140,0.0,4.0,55,0.00,,,0.00,meteohub,2013-10-11 02:02:00,
2013-10-10 21:07:00,70.5,54.3,29.77,SSE,151,0.0,0.0,55,0.00,,,0.00,meteohub,2013-10-11 02:07:00,
2013-10-10 21:12:00,70.5,54.3,29.77,SSE,157,0.0,0.0,55,0.00,,,0.00,meteohub,2013-10-11 02:12:00,
2013-10-10 21:17:00,70.3,54.1,29.77,South,176,0.0,0.0,55,0.00,,,0.00,meteohub,2013-10-11 02:17:00,
2013-10-10 21:22:00,70.3,54.0,29.77,SSE,147,0.0,0.0,55,0.00,,,0.00,meteohub,2013-10-11 02:22:00,
2013-10-10 21:27:00,70.2,53.8,29.77,SE,146,0.0,0.0,55,0.00,,,0.00,meteohub,2013-10-11 02:27:00,
2013-10-10 21:32:00,70.0,53.8,29.77,SSE,152,0.0,0.0,55,0.00,,,0.00,meteohub,2013-10-11 02:32:00,
2013-10-10 21:37:00,70.0,54.1,29.77,South,174,0.0,0.0,56,0.00,,,0.00,meteohub,2013-10-11 02:37:00,
2013-10-10 21:42:00,69.8,53.8,29.77,SSE,168,0.0,0.0,56,0.00,,,0.00,meteohub,2013-10-11 02:42:00,
2013-10-10 21:47:00,69.4,54.0,29.77,South,177,0.0,0.0,57,0.00,,,0.00,meteohub,2013-10-11 02:47:00,
2013-10-10 21:52:00,69.3,54.0,29.77,SSE,149,0.0,0.0,57,0.00,,,0.00,meteohub,2013-10-11 02:52:00,
2013-10-10 21:57:00,69.1,54.0,29.74,SSE,164,0.0,0.0,57,0.00,,,0.00,meteohub,2013-10-11 02:57:00,
2013-10-10 22:02:00,69.1,54.1,29.74,SSE,151,0.0,0.0,58,0.00,,,0.00,meteohub,2013-10-11 03:02:00,
2013-10-10 22:07:00,68.9,54.0,29.74,SSE,154,0.0,0.0,58,0.00,,,0.00,meteohub,2013-10-11 03:07:00,
2013-10-10 22:12:00,68.7,54.5,29.74,SE,136,0.0,0.0,59,0.00,,,0.00,meteohub,2013-10-11 03:12:00,
2013-10-10 22:17:00,68.7,54.5,29.74,SSE,151,0.0,0.0,59,0.00,,,0.00,meteohub,2013-10-11 03:17:00,
2013-10-10 22:22:00,68.7,54.5,29.74,SSE,167,0.0,0.0,59,0.00,,,0.00,meteohub,2013-10-11 03:22:00,
2013-10-10 22:27:00,68.7,54.3,29.74,SSW,195,0.0,0.0,59,0.00,,,0.00,meteohub,2013-10-11 03:27:00,
2013-10-10 22:32:00,68.7,54.3,29.74,SSE,159,0.0,2.0,59,0.00,,,0.00,meteohub,2013-10-11 03:32:00,
2013-10-10 22:37:00,68.5,54.1,29.74,SSE,151,0.0,2.0,59,0.00,,,0.00,meteohub,2013-10-11 03:37:00,
2013-10-10 22:42:00,68.4,54.0,29.77,SSE,155,0.0,0.0,59,0.00,,,0.00,meteohub,2013-10-11 03:42:00,
2013-10-10 22:47:00,68.4,54.5,29.77,SSE,152,0.0,0.0,60,0.00,,,0.00,meteohub,2013-10-11 03:47:00,
2013-10-10 22:52:00,68.2,54.3,29.77,SSE,154,0.0,0.0,60,0.00,,,0.00,meteohub,2013-10-11 03:52:00,
2013-10-10 22:57:00,68.0,54.5,29.77,South,174,10.0,0.0,61,0.00,,,0.00,meteohub,2013-10-11 03:57:00,
2013-10-10 23:01:00,68.0,54.5,29.77,South,177,0.0,10.0,61,0.00,,,0.00,meteohub,2013-10-11 04:01:00,
2013-10-10 23:02:00,68.0,54.5,29.77,SSE,151,0.0,10.0,61,0.00,,,0.00,meteohub,2013-10-11 04:02:00,
2013-10-10 23:03:00,67.8,54.5,29.77,SSE,159,0.0,10.0,61,0.00,,,0.00,meteohub,2013-10-11 04:03:00,
2013-10-10 23:04:00,67.8,54.5,29.77,South,181,0.0,10.0,61,0.00,,,0.00,meteohub,2013-10-11 04:04:00,
2013-10-10 23:09:00,67.8,54.3,29.77,SSE,160,0.0,10.0,61,0.00,,,0.00,meteohub,2013-10-11 04:09:00,
2013-10-10 23:14:00,67.6,54.7,29.77,South,170,0.0,10.0,62,0.00,,,0.00,meteohub,2013-10-11 04:14:00,
2013-10-10 23:17:00,67.5,54.7,29.77,SSE,166,0.0,0.0,62,0.00,,,0.00,meteohub,2013-10-11 04:17:00,
2013-10-10 23:22:00,67.5,54.7,29.77,SSE,164,0.0,0.0,62,0.00,,,0.00,meteohub,2013-10-11 04:22:00,
2013-10-10 23:27:00,67.3,54.5,29.77,South,175,0.0,0.0,62,0.00,,,0.00,meteohub,2013-10-11 04:27:00,
2013-10-10 23:32:00,67.3,54.9,29.77,South,187,0.0,0.0,63,0.00,,,0.00,meteohub,2013-10-11 04:32:00,
2013-10-10 23:37:00,67.3,54.9,29.77,SSE,166,0.0,0.0,63,0.00,,,0.00,meteohub,2013-10-11 04:37:00,
2013-10-10 23:42:00,67.1,55.2,29.74,South,191,0.0,0.0,64,0.00,,,0.00,meteohub,2013-10-11 04:42:00,
2013-10-10 23:47:00,67.1,55.0,29.74,SSE,147,0.0,0.0,64,0.00,,,0.00,meteohub,2013-10-11 04:47:00,
2013-10-10 23:52:00,66.9,55.0,29.74,SSE,167,0.0,0.0,64,0.00,,,0.00,meteohub,2013-10-11 04:52:00,
2013-10-10 23:58:00,66.9,54.7,29.74,SSE,160,0.0,0.0,64,0.00,,,0.00,meteohub,2013-10-11 04:58:00,